Flag Weather past 2 weeks in Port of Spain, Trinidad and Tobago

Now
88 °F

Scattered showers. Scattered clouds.


Feels Like: 98 °F
Forecast: 79 / 87 °F
Wind: 14 mph from East

Location: Piarco International Airport - Trinidad

Current Time: Nov 22, 2014 at 10:33:04 AM

Latest Report: Nov 22, 2014 at 10:00 AM


Visibility: N/A

Pressure: 29.92 "Hg

Humidity: 66%

Dew point: 75 °F

Location of Port of SpainLocation

Historic Weather in Port of Spain — Graph

°F

Port of Spain temperature yesterday

Maximum temperature yesterday: 88 °F (at 2:00 PM)
Minimum temperature yesterday: 75 °F (at 12:00 AM)
Average temperature yesterday: 79 °F

Past Weeks' High & Low Weather Summary

 TemperatureHumidityPressure
High91 °F (Nov 7, 1:00 PM)100% (Nov 9, 10:00 PM)30.01 "Hg (Nov 9, 10:00 PM)
Low73 °F (Nov 12, 6:00 AM)59% (Nov 7, 1:00 PM)29.56 "Hg (Nov 8, 6:00 PM)
Average79 °F86%29.86 "Hg
* Reported Nov 7 9:00 AM — Nov 22 9:00 AM, Port of Spain, Weather by CustomWeather, © 2014

Note: Actual official high and low records may vary slightly from our data, if they occured in-between our weather recording intervals... More about our weather records

Advertising

Port of Spain weather history for previous 24 hours

 ConditionsComfort  
Time TempWeatherWind HumidityBarometerVisibility
9:00 AM
Nov 22
84 °FScattered clouds.12 mph74%29.92 "HgN/A
8:00 AM82 °FPassing clouds.No wind79%29.92 "HgN/A
7:00 AM77 °FPassing clouds.No wind89%29.89 "HgN/A
6:00 AM75 °FPassing clouds.No wind94%29.89 "HgN/A
5:00 AM75 °FPassing clouds.No wind94%29.86 "HgN/A
4:00 AM75 °FPassing clouds.No wind94%29.86 "HgN/A
3:00 AM75 °FPassing clouds.No wind94%29.86 "HgN/A
2:00 AM77 °FPassing clouds.No wind89%29.86 "HgN/A
1:00 AM77 °FPassing clouds.No wind89%29.89 "HgN/A
12:00 AM77 °FPassing clouds.No wind94%29.89 "HgN/A
11:00 PM
Nov 21
77 °FLight rain. Passing clouds.No wind94%29.92 "HgN/A
10:00 PM77 °FLight rain. Passing clouds.No wind94%29.92 "HgN/A
9:00 PM77 °FLight rain. Passing clouds.No wind94%29.92 "HgN/A
8:00 PM77 °FLight rain. Passing clouds.No wind94%29.89 "HgN/A
7:00 PM77 °FLight rain. Passing clouds.No wind94%29.86 "HgN/A
6:00 PM77 °FLight rain. Passing clouds.3 mph89%29.83 "Hg2 mi
5:00 PM77 °FScattered showers. Broken clouds.15 mph94%29.83 "Hg1 mi
4:00 PM84 °FScattered showers. Scattered clouds.14 mph70%29.83 "Hg2 mi
3:00 PM86 °FScattered showers. Scattered clouds.13 mph66%29.83 "HgN/A
2:00 PM88 °FScattered showers. Scattered clouds.14 mph66%29.83 "HgN/A
1:00 PM82 °FScattered clouds.8 mph74%29.89 "HgN/A
12:00 PM79 °FSprinkles. Scattered clouds.15 mph84%29.92 "HgN/A
11:00 AM86 °FScattered clouds.16 mph66%29.92 "HgN/A
10:00 AM86 °FScattered clouds.13 mph70%29.92 "HgN/A
Weather by CustomWeather, © 2014

See weather overviewHow to use our weather pages